Location: Huntsville
(41.2590°N, 111.7678°W)
Time: 06:14:00
(UTC+00:00)

SR - Pass Details

Date: 23 June 2021
Orbit: 577 x 878 km, 66.7° (Epoch: 26 July)

Event Time Altitude Azimuth Distance (km) Brightness Sun altitude
Rises 06:06:05 0° 341° (NNW) 3,319 ? -22.5°
Reaches altitude 10° 06:10:02 10° 8° (N) 2,313 ? -22.8°
Maximum altitude 06:12:28 13° 36° (NE) 2,055 ? -22.9°
Drops below altitude 10° 06:14:49 10° 64° (ENE) 2,214 ? -23.0°
Enters shadow 06:16:58 - 83° (E) 2,656 ? -23.2°
